This demonstration page uses our WeatherBlox Daily Observations layout. Learn more.

Left ArrowRight Arrow

Hourly Observations for March 14, 2018

Temp ( °F °C ) Dew Point ( °F °C ) Humidity (%) Winds ( mph kmh ) Pressure ( in mb ) Visibility ( mi km ) Precip ( " mm )
12:53 am 00:53 Cloudy with Light Rain 46 7.8 43 6.1 89 89 N 9 15 29.88 1012 8 13 0.05 1.27
1:53 am 01:53 Cloudy with Light Rain 45 7.2 42 5.6 90 90 N 6 9 29.89 1012 6 10 0.02 0.51
2:53 am 02:53 Cloudy with Light Rain 44 6.7 42 5.6 93 93 N 7 11 29.90 1013 7 11 0.03 0.76
3:53 am 03:53 Cloudy with Rain 44 6.7 42 5.6 93 93 NNE 9 15 29.91 1013 4 6 0.09 2.29
4:53 am 04:53 Cloudy with Light Rain 44 6.7 42 5.6 93 93 NE 8 13 29.91 1013 6 10 0.04 1.02
5:53 am 05:53 Cloudy with Rain 44 6.7 42 5.6 93 93 ENE 12 19 29.91 1013 3 5 0.25 6.35
6:53 am 06:53 Cloudy with Light Rain 43 6.1 42 5.6 97 97 E 9 15 29.92 1013 10 16 0.17 4.32
7:26 am 07:26 Cloudy 43 6.1 41 5 93 93 Calm 29.94 1014 10 16 0.01 0.25
7:49 am 07:49 Cloudy 43 6 39 4 87 87 N 3 6 29.94 1014 10 16 0.01 0.25
7:53 am 07:53 Cloudy 43 6.1 41 5 93 93 NNE 5 7 29.94 1014 10 16 0.01 0.25
8:09 am 08:09 Cloudy 43 6.1 41 5 93 93 NNE 5 7 29.94 1014 10 16 0.00 0.00
8:53 am 08:53 Cloudy 43 6.1 40 4.4 89 89 N 6 9 29.96 1014 10 16 0.00 0.00
9:53 am 09:53 Cloudy 43 6.1 40 4.4 89 89 NNE 7 11 29.97 1015 10 16 0.00 0.00
10:53 am 10:53 Cloudy 44 6.7 40 4.4 85 85 NNE 6 9 29.98 1015 10 16 0.01 0.25
11:53 am 11:53 Partly Cloudy 46 7.8 41 5 83 83 E 3 6 29.99 1016 10 16 0.00 0.00
12:53 pm 12:53 Mostly Cloudy 48 8.9 42 5.6 80 80 Calm 29.97 1015 10 16 0.00 0.00
1:12 pm 13:12 Mostly Cloudy 49 9.4 40 4.4 71 71 ESE 5 7 29.97 1015 10 16 0.00 0.00
1:32 pm 13:32 Mostly Cloudy 49 9.4 42 5.6 77 77 S 5 7 29.97 1015 10 16 0.00 0.00
1:43 pm 13:43 Mostly Cloudy 49 9.4 42 5.6 77 77 S 3 6 29.94 1014 10 16 0.00 0.00
1:53 pm 13:53 Cloudy 50 10 41 5 71 71 S 5 7 29.95 1014 10 16 0.00 0.00
2:53 pm 14:53 Cloudy 51 10.6 40 4.4 66 66 NW 3 6 29.93 1014 10 16 0.00 0.00
3:53 pm 15:53 Cloudy 52 11.1 40 4.4 64 64 NW 5 7 29.93 1014 10 16 0.00 0.00
4:53 pm 16:53 Mostly Sunny 54 12.2 38 3.3 55 55 VRB 6 9 29.91 1013 10 16 0.00 0.00
5:53 pm 17:53 Sunny 52 11.1 39 3.9 61 61 N 6 9 29.91 1013 10 16 0.00 0.00
6:53 pm 18:53 Partly Cloudy 52 11.1 38 3.3 59 59 Calm 29.91 1013 10 16 0.00 0.00
7:53 pm 19:53 Mostly Cloudy 47 8.3 41 5 80 80 Calm 29.91 1013 10 16 0.00 0.00
8:53 pm 20:53 Clear 45 7.2 41 5 86 86 Calm 29.93 1013 10 16 0.00 0.00
9:53 pm 21:53 Clear 43 6.1 40 4.4 89 89 Calm 29.94 1014 10 16 0.00 0.00
10:53 pm 22:53 Mostly Cloudy 43 6.1 41 5 93 93 Calm 29.95 1014 10 16 0.00 0.00
11:53 pm 23:53 Partly Cloudy 45 7.2 41 5 86 86 SSW 6 9 29.96 1015 10 16 0.00 0.00

Powered by AerisWeather